Date String (YYYY-MM-DD hh:mm:ss) UTC,Instrument flags,absolute air pressure of the measurement (hPa),sample flow rate (lpm),inlet stack bypass flow (lpm),air temperature of the measurement (°C),ambient temperature measured by the external sensor (°C),aerosol sample conditioner tube jacket temperature (°C),OPC LED temperature (°C),internal box temperature (°C),relative humidity of the measurement (%),span deviation,mass concentration of particles derived from Lorenz-Mie calculation of OPC scattering (μg/m³),mass concentration of particles derived from Lorenz-Mie calculation of OPC scattering (μg/m³),mass concentration of particles derived from Lorenz-Mie calculation of OPC scattering (μg/m³)
DateTimeUTC,F1_M11,P_M11,Q1_M11,Q2_M11,T1_M11,T2_M11,T3_M11,T4_M11,T5_M11,U1_M11,ZSPAN_M11,X0_M11,X2_M11,X1_M11
2023-06-21 20:00:00,SystemResetWarning,0832.0,4.99,000.00,031.6,024.8,000.0,039.3,031.6,33.7,0002.5,0019.48,0011.44,0010.21
2023-06-21 20:01:00,SystemResetWarning,0832.0,4.99,000.00,031.6,025.2,000.0,039.3,031.3,32.8,0002.1,0017.90,0011.35,0010.18
2023-06-21 20:02:00,SystemResetWarning,0831.9,5.02,000.00,031.5,025.6,000.0,039.3,031.3,32.5,0002.0,0017.88,0011.34,0010.15
2023-06-21 20:03:00,SystemResetWarning,0831.9,5.00,000.00,031.5,026.1,000.0,039.3,031.3,33.5,0002.0,0017.68,0011.28,0010.13
2023-06-21 20:04:00,SystemResetWarning,0831.9,5.00,000.00,031.4,026.6,000.0,039.4,031.4,34.1,0002.4,0017.53,0011.30,0010.10
2023-06-21 20:05:00,SystemResetWarning,0831.9,5.00,000.00,031.4,027.0,000.0,039.4,031.4,34.1,0002.5,0017.72,0011.31,0010.09
2023-06-21 20:06:00,SystemResetWarning,0831.9,4.99,000.00,031.4,027.4,000.0,039.4,031.5,34.1,0002.3,0018.41,0011.31,0010.07
2023-06-21 20:07:00,SystemResetWarning,0831.8,5.01,000.00,031.4,027.7,000.0,039.4,031.6,34.6,0002.6,0018.93,0011.35,0010.07
2023-06-21 20:08:00,SystemResetWarning,0832.0,4.98,000.00,031.4,027.9,000.0,039.5,031.6,35.0,0002.6,0019.04,0011.32,0010.06
2023-06-21 20:09:00,SystemResetWarning,0831.7,5.02,000.00,031.5,027.5,000.0,039.5,031.8,35.8,0002.5,0019.24,0011.35,0010.08
2023-06-21 20:10:00,SystemResetWarning,0831.6,5.00,000.00,031.8,025.7,000.0,039.4,031.9,35.8,0002.3,0019.48,0011.47,0010.12
2023-06-21 20:11:00,SystemResetWarning,0831.7,5.00,000.00,032.1,024.9,000.0,039.4,032.0,33.5,0002.2,0019.59,0011.55,0010.13
2023-06-21 20:12:00,SystemResetWarning,0831.7,5.00,000.00,032.2,025.0,000.0,039.4,031.7,33.4,0002.4,0019.52,0011.56,0010.13
2023-06-21 20:13:00,SystemResetWarning,0831.6,4.98,000.00,032.1,025.4,000.0,039.4,031.5,34.9,0002.7,0019.66,0011.57,0010.12
2023-06-21 20:14:00,SystemResetWarning,0831.6,5.02,000.00,032.1,025.9,000.0,039.5,031.5,32.8,0002.6,0019.51,0011.51,0010.10
2023-06-21 20:15:00,SystemResetWarning,0831.7,5.00,000.00,032.1,026.4,000.0,039.6,031.5,32.0,0002.6,0020.09,0011.48,0010.07
2023-06-21 20:16:00,SystemResetWarning,0831.7,4.99,000.00,032.1,026.8,000.0,039.6,031.6,31.8,0002.7,0020.65,0011.47,0010.03
2023-06-21 20:17:00,SystemResetWarning,0831.7,5.01,000.00,032.1,027.2,000.0,039.7,031.7,32.9,0002.9,0020.63,0011.39,0009.96
2023-06-21 20:18:00,SystemResetWarning,0831.6,5.01,000.00,032.1,027.5,000.0,039.8,031.7,32.1,0002.8,0021.01,0011.30,0009.92
2023-06-21 20:19:00,SystemResetWarning,0831.6,5.00,000.00,032.1,027.8,000.0,039.8,031.7,32.4,0002.9,0021.51,0011.31,0009.88
2023-06-21 20:20:00,SystemResetWarning,0831.6,5.00,000.00,032.1,028.0,000.0,039.9,031.8,32.8,0002.9,0021.83,0011.30,0009.83
2023-06-21 20:21:00,SystemResetWarning,0831.6,4.99,000.00,032.1,027.9,000.0,039.9,031.9,32.5,0003.1,0022.07,0011.19,0009.75
2023-06-21 20:22:00,SystemResetWarning,0831.5,5.00,000.00,032.1,026.3,000.0,039.8,031.9,32.1,0003.4,0022.93,0011.11,0009.69
2023-06-21 20:23:00,SystemResetWarning,0831.5,5.00,000.00,032.1,025.0,000.0,039.8,031.9,33.2,0003.5,0022.80,0011.07,0009.66
2023-06-21 20:24:00,SystemResetWarning,0831.6,5.00,000.00,032.0,024.9,000.0,039.7,031.7,32.5,0003.3,0023.28,0011.11,0009.67
2023-06-21 20:25:00,SystemResetWarning,0831.5,5.01,000.00,031.8,025.2,000.0,039.7,031.3,33.8,0003.4,0024.06,0011.18,0009.68
2023-06-21 20:26:00,SystemResetWarning,0831.5,4.99,000.00,031.6,025.7,000.0,039.7,031.3,33.5,0003.5,0024.65,0011.23,0009.71
2023-06-21 20:27:00,SystemResetWarning,0831.6,4.98,000.00,031.5,026.2,000.0,039.7,031.4,34.7,0003.5,0024.11,0011.24,0009.75
2023-06-21 20:28:00,SystemResetWarning,0831.5,5.03,000.00,031.6,026.7,000.0,039.7,031.5,35.0,0003.4,0024.62,0011.27,0009.77
2023-06-21 20:29:00,SystemResetWarning,0831.5,4.97,000.00,031.7,027.1,000.0,039.7,031.6,33.6,0003.3,0024.42,0011.36,0009.82
2023-06-21 20:30:00,SystemResetWarning,0831.6,5.02,000.00,031.7,027.4,000.0,039.7,031.7,33.8,0003.4,0023.27,0011.34,0009.86
2023-06-21 20:31:00,SystemResetWarning,0831.5,5.00,000.00,031.7,027.7,000.0,039.7,031.7,33.2,0003.3,0023.69,0011.36,0009.88
2023-06-21 20:32:00,SystemResetWarning,0831.6,4.99,000.00,031.7,027.9,000.0,039.7,031.8,32.0,0003.1,0024.43,0011.37,0009.92
2023-06-21 20:33:00,SystemResetWarning,0831.6,4.99,000.00,031.8,027.5,000.0,039.7,031.9,31.7,0002.8,0023.50,0011.38,0009.95
2023-06-21 20:34:00,SystemResetWarning,0831.6,5.00,000.00,031.8,025.8,000.0,039.6,031.7,31.6,0002.9,0023.14,0011.36,0009.96
2023-06-21 20:35:00,SystemResetWarning,0831.5,5.00,000.00,031.7,024.9,000.0,039.6,031.7,32.1,0003.0,0023.98,0011.30,0009.93
2023-06-21 20:36:00,SystemResetWarning,0831.5,5.01,000.00,031.6,025.0,000.0,039.5,031.5,32.1,0003.0,0023.10,0011.17,0009.88
2023-06-21 20:37:00,SystemResetWarning,0831.5,5.01,000.00,031.4,025.3,000.0,039.5,031.2,32.3,0002.8,0022.19,0011.11,0009.84
2023-06-21 20:38:00,SystemResetWarning,0831.5,5.01,000.00,031.3,025.8,000.0,039.5,031.2,31.9,0002.9,0021.74,0011.10,0009.83
2023-06-21 20:39:00,SystemResetWarning,0831.5,4.99,000.00,031.2,026.3,000.0,039.5,031.3,31.9,0002.9,0020.71,0011.12,0009.83
2023-06-21 20:40:00,SystemResetWarning,0831.5,5.00,000.00,031.2,026.8,000.0,039.5,031.4,31.5,0002.7,0019.87,0011.04,0009.78
2023-06-21 20:41:00,SystemResetWarning,0831.4,5.00,000.00,031.1,027.1,000.0,039.5,031.4,32.7,0002.5,0020.01,0010.97,0009.72
2023-06-21 20:42:00,SystemResetWarning,0831.5,5.00,000.00,031.1,027.5,000.0,039.5,031.5,33.4,0002.3,0019.97,0010.92,0009.68
2023-06-21 20:43:00,SystemResetWarning,0831.5,5.00,000.00,031.1,027.7,000.0,039.5,031.5,33.9,0002.4,0019.95,0010.88,0009.64
2023-06-21 20:44:00,SystemResetWarning,0831.4,4.99,000.00,031.1,028.0,000.0,039.4,031.7,33.1,0002.5,0019.81,0010.86,0009.61
2023-06-21 20:45:00,SystemResetWarning,0831.4,4.99,000.00,031.1,027.0,000.0,039.4,031.6,31.8,0002.2,0020.08,0010.88,0009.63
2023-06-21 20:46:00,SystemResetWarning,0831.4,5.01,000.00,031.0,025.3,000.0,039.3,031.4,31.1,0002.2,0019.21,0010.91,0009.67
2023-06-21 20:47:00,SystemResetWarning,0831.3,5.01,000.00,031.0,024.7,000.0,039.2,031.4,31.7,0001.8,0019.32,0010.98,0009.72
2023-06-21 20:48:00,SystemResetWarning,0831.3,4.99,000.00,030.9,024.9,000.0,039.2,031.1,33.0,0001.7,0019.51,0010.98,0009.72
2023-06-21 20:49:00,SystemResetWarning,0831.3,5.00,000.00,030.7,025.3,000.0,039.1,031.0,32.7,0001.4,0020.42,0010.94,0009.71
2023-06-21 20:50:00,SystemResetWarning,0831.3,5.00,000.00,030.6,025.9,000.0,039.1,031.1,32.7,0001.3,0021.53,0010.90,0009.67
2023-06-21 20:51:00,SystemResetWarning,0831.4,5.01,000.00,030.6,026.4,000.0,039.1,031.1,33.4,0001.6,0022.27,0010.94,0009.68
2023-06-21 20:52:00,SystemResetWarning,0831.3,4.99,000.00,030.5,026.8,000.0,039.1,031.2,34.0,0001.6,0022.44,0010.98,0009.68
2023-06-21 20:53:00,SystemResetWarning,0831.3,5.00,000.00,030.5,027.2,000.0,039.0,031.3,33.9,0001.7,0022.20,0010.97,0009.70
2023-06-21 20:54:00,SystemResetWarning,0831.3,5.00,000.00,030.5,027.5,000.0,039.0,031.4,33.7,0001.5,0021.29,0011.00,0009.71
2023-06-21 20:55:00,SystemResetWarning,0831.3,5.00,000.00,030.5,027.8,000.0,039.0,031.4,33.4,0001.2,0021.42,0011.03,0009.72
2023-06-21 20:56:00,SystemResetWarning,0831.3,5.00,000.00,030.6,028.0,000.0,039.0,031.5,33.9,0001.3,0021.28,0011.00,0009.69
2023-06-21 20:57:00,SystemResetWarning,0831.3,5.00,000.00,030.6,027.5,000.0,039.0,031.6,33.8,0001.2,0020.92,0011.00,0009.66
2023-06-21 20:58:00,SystemResetWarning,0831.3,4.99,000.00,030.6,025.7,000.0,038.9,031.5,34.1,0001.3,0021.62,0010.98,0009.63
2023-06-21 20:59:00,SystemResetWarning,0831.3,5.00,000.00,030.5,024.8,000.0,038.8,031.4,35.6,0001.2,0022.71,0011.01,0009.64
